Location: Newark
(48.2308°N, 120.8549°W)
Time: 21:23:51
(UTC+00:00)

Vanguard 3 - Visible Passes

Search period start: 25 May 2020 00:00
Search period end: 04 June 2020 00:00
Orbit: 510 x 3261 km, 33.3° (Epoch: 24 May)

Date Brightness Start Highest point End Pass type
(mag) Time Alt. Az. Time Alt. Az. Time Alt. Az.
26 May 10.6 10:25:28 10° S 10:31:27 14° SSE 10:36:24 10° SE visible
27 May 10.1 11:19:46 10° SSW 11:29:29 22° SSE 11:36:24 10° ESE visible
28 May 10.5 10:06:53 12° S 10:14:46 18° SSE 10:21:50 10° ESE visible
29 May 10.8 08:56:18 12° SSE 08:59:53 13° SSE 09:05:15 10° SE visible
29 May 10.1 11:01:08 10° SSW 11:12:53 26° SSE 11:20:58 10° ESE visible
30 May 10.4 09:50:08 15° S 09:57:58 22° SSE 10:06:37 10° ESE visible
31 May 10.7 08:39:21 16° SSE 08:42:54 17° SSE 08:50:53 10° ESE visible
31 May 10.0 10:43:50 12° SW 10:56:09 31° SSE 11:05:19 10° ESE visible
01 Jun 11.0 07:28:29 10° SE 07:28:29 10° SE 07:30:24 10° SE visible
01 Jun 10.3 09:32:56 19° S 09:41:02 26° SSE 09:51:02 10° ESE visible
02 Jun 10.6 08:21:56 19° SSE 08:25:47 21° SSE 08:35:38 10° ESE visible
02 Jun 10.0 10:26:23 14° SW 10:39:17 35° SSE 10:49:29 10° ESE visible
03 Jun 10.9 07:10:46 14° SE 07:10:46 14° SE 07:17:46 10° ESE visible
03 Jun 10.3 09:15:12 21° SSW 09:23:57 30° SSE 09:35:13 10° ESE visible
03 Jun 9.8 11:22:23 10° WSW 11:37:30 40° S 11:47:13 10° ESE visible
